When you browse on this site, cookies collect data to enhance your experience and personalize the content and advertising you see.
Visit our Privacy Policy to learn more. By continuing to use the site, you agree to this use of cookies and data.
  • En España
  • Lista de países
  • Para 7 días
  • Temperatura del agua
  • El tiempo en el mapa
  • Informadores
  • user-avatar
    Iniciar sesión

    Tiempo cada hora Cobán

    Hoy, 20 Febrero, Jueves

    Tiempo Temperatura Precipitaciones Viento Presión Humedad
    00:00 +14°C° 0 mm 0 mps 655 mmHg 97%
    01:00 +14°C° 0 mm 0 mps 654 mmHg 96%
    02:00 +14°C° 0 mm 1 mps 654 mmHg 95%
    03:00 +14°C° 0 mm 1 mps 653 mmHg 94%
    04:00 +14°C° 0.1 mm 1 mps 654 mmHg 93%
    05:00 +14°C° 0.1 mm 1 mps 654 mmHg 93%
    06:00 +14°C° 0.1 mm 1 mps 654 mmHg 92%
    07:00 +15°C° 0 mm 0 mps 655 mmHg 88%
    08:00 +16°C° 0 mm 0 mps 655 mmHg 83%
    09:00 +18°C° 0 mm 0 mps 656 mmHg 79%
    10:00 +22°C° 0 mm 1 mps 656 mmHg 69%
    11:00 +25°C° 0 mm 1 mps 657 mmHg 59%
    12:00 +27°C° 0 mm 2 mps 657 mmHg 49%
    13:00 +27°C° 0 mm 2 mps 656 mmHg 51%
    14:00 +26°C° 0 mm 2 mps 656 mmHg 54%
    15:00 +26°C° 0 mm 2 mps 655 mmHg 56%
    16:00 +24°C° 0.2 mm 2 mps 655 mmHg 68%
    17:00 +22°C° 0.2 mm 1 mps 655 mmHg 79%
    18:00 +21°C° 0.2 mm 1 mps 655 mmHg 91%
    19:00 +20°C° 0.2 mm 1 mps 655 mmHg 93%
    20:00 +19°C° 0.2 mm 1 mps 656 mmHg 96%
    21:00 +16°C° 0.2 mm 0 mps 656 mmHg 98%
    22:00 +16°C° 0.1 mm 0 mps 656 mmHg 97%
    23:00 +16°C° 0.1 mm 0 mps 656 mmHg 97%

    Mañana, 21 Febrero, Viernes

    Tiempo Temperatura Precipitaciones Viento Presión Humedad
    00:00 +16°C° 0.1 mm 0 mps 657 mmHg 96%
    07:00 +18°C° 0.2 mm 1 mps 657 mmHg 92%
    08:00 +19°C° 0.2 mm 1 mps 657 mmHg 87%
    09:00 +21°C° 0.2 mm 1 mps 658 mmHg 81%
    10:00 +21°C° 0.1 mm 2 mps 658 mmHg 72%
    11:00 +23°C° 0.1 mm 2 mps 658 mmHg 63%
    12:00 +25°C° 0.1 mm 3 mps 659 mmHg 54%
    13:00 +25°C° 0.1 mm 3 mps 658 mmHg 54%
    14:00 +25°C° 0.1 mm 3 mps 657 mmHg 55%
    15:00 +24°C° 0.1 mm 3 mps 656 mmHg 56%
    16:00 +23°C° 0 mm 2 mps 656 mmHg 65%
    17:00 +21°C° 0 mm 1 mps 656 mmHg 74%
    18:00 +19°C° 0 mm 1 mps 656 mmHg 83%
    19:00 +19°C° 0.4 mm 1 mps 656 mmHg 87%
    20:00 +18°C° 0.4 mm 1 mps 657 mmHg 92%
    21:00 +16°C° 0.4 mm 1 mps 657 mmHg 96%
    22:00 +16°C° 0.4 mm 1 mps 657 mmHg 97%
    23:00 +16°C° 0.4 mm 1 mps 657 mmHg 97%

    Pasado mañana, 22 Febrero, Sábado

    Tiempo Temperatura Precipitaciones Viento Presión Humedad
    00:00 +14°C° 0.4 mm 0 mps 657 mmHg 98%
    01:00 +14°C° 0.7 mm 0 mps 656 mmHg 98%
    02:00 +15°C° 0.7 mm 1 mps 656 mmHg 98%
    03:00 +15°C° 0.7 mm 1 mps 656 mmHg 98%
    04:00 +15°C° 0.4 mm 1 mps 656 mmHg 99%
    05:00 +15°C° 0.4 mm 1 mps 656 mmHg 99%
    06:00 +14°C° 0.4 mm 0 mps 656 mmHg 99%
    07:00 +16°C° 0.3 mm 1 mps 657 mmHg 97%
    08:00 +18°C° 0.3 mm 1 mps 658 mmHg 95%
    09:00 +18°C° 0.3 mm 1 mps 658 mmHg 94%
    10:00 +19°C° 0.6 mm 1 mps 658 mmHg 90%
    11:00 +20°C° 0.6 mm 1 mps 658 mmHg 86%
    12:00 +21°C° 0.6 mm 1 mps 658 mmHg 82%
    13:00 +21°C° 0.6 mm 1 mps 657 mmHg 82%
    14:00 +21°C° 0.6 mm 1 mps 656 mmHg 82%
    15:00 +21°C° 0.6 mm 1 mps 656 mmHg 82%
    16:00 +20°C° 0.3 mm 1 mps 656 mmHg 86%
    17:00 +19°C° 0.3 mm 1 mps 656 mmHg 90%
    18:00 +18°C° 0.3 mm 1 mps 656 mmHg 95%
    19:00 +16°C° 0.3 mm 1 mps 656 mmHg 96%
    20:00 +16°C° 0.3 mm 1 mps 656 mmHg 97%
    21:00 +16°C° 0.3 mm 1 mps 657 mmHg 98%
    22:00 +16°C° 0.9 mm 1 mps 657 mmHg 98%
    23:00 +16°C° 0.9 mm 1 mps 657 mmHg 98%

    23 Febrero, Domingo

    Tiempo Temperatura Precipitaciones Viento Presión Humedad
    00:00 +16°C° 0.9 mm 1 mps 657 mmHg 99%
    01:00 +16°C° 1.1 mm 1 mps 656 mmHg 99%
    02:00 +15°C° 1.1 mm 1 mps 656 mmHg 99%
    03:00 +15°C° 1.1 mm 1 mps 655 mmHg 99%
    04:00 +15°C° 0.3 mm 1 mps 655 mmHg 99%
    05:00 +14°C° 0.3 mm 1 mps 656 mmHg 98%
    06:00 +14°C° 0.3 mm 1 mps 656 mmHg 98%
    07:00 +15°C° 0 mm 1 mps 656 mmHg 94%
    08:00 +15°C° 0 mm 0 mps 657 mmHg 89%
    09:00 +16°C° 0 mm 0 mps 657 mmHg 84%
    10:00 +21°C° 0 mm 1 mps 657 mmHg 72%
    11:00 +23°C° 0 mm 1 mps 657 mmHg 60%
    12:00 +25°C° 0 mm 1 mps 657 mmHg 49%
    13:00 +25°C° 0 mm 2 mps 656 mmHg 50%
    14:00 +25°C° 0 mm 2 mps 656 mmHg 52%
    15:00 +25°C° 0 mm 2 mps 655 mmHg 54%
    16:00 +23°C° 0 mm 2 mps 654 mmHg 65%
    17:00 +21°C° 0 mm 1 mps 654 mmHg 77%
    18:00 +19°C° 0 mm 1 mps 654 mmHg 88%
    19:00 +19°C° 0 mm 1 mps 654 mmHg 91%
    20:00 +16°C° 0 mm 0 mps 654 mmHg 94%
    21:00 +15°C° 0 mm 0 mps 655 mmHg 97%
    22:00 +15°C° 0 mm 0 mps 654 mmHg 97%
    23:00 +15°C° 0 mm 0 mps 654 mmHg 97%

    24 Febrero, Lunes

    Tiempo Temperatura Precipitaciones Viento Presión Humedad
    00:00 +14°C° 0 mm 0 mps 654 mmHg 97%
    01:00 +14°C° 0 mm 0 mps 653 mmHg 97%
    02:00 +13°C° 0 mm 0 mps 653 mmHg 97%
    03:00 +14°C° 0 mm 1 mps 652 mmHg 97%
    04:00 +14°C° 0 mm 1 mps 652 mmHg 96%
    05:00 +13°C° 0 mm 1 mps 652 mmHg 96%
    06:00 +13°C° 0 mm 1 mps 652 mmHg 96%
    07:00 +16°C° 0 mm 1 mps 653 mmHg 85%
    08:00 +17°C° 0 mm 0 mps 655 mmHg 73%
    09:00 +20°C° 0 mm 0 mps 656 mmHg 62%
    10:00 +24°C° 0 mm 1 mps 656 mmHg 53%
    11:00 +27°C° 0 mm 1 mps 655 mmHg 45%
    12:00 +29°C° 0 mm 1 mps 655 mmHg 37%
    13:00 +29°C° 0 mm 1 mps 655 mmHg 38%
    14:00 +29°C° 0 mm 1 mps 654 mmHg 40%
    15:00 +29°C° 0 mm 1 mps 653 mmHg 41%
    16:00 +26°C° 0 mm 1 mps 653 mmHg 54%
    17:00 +24°C° 0 mm 1 mps 652 mmHg 67%
    18:00 +19°C° 0 mm 0 mps 651 mmHg 80%
    19:00 +18°C° 0 mm 0 mps 652 mmHg 84%
    20:00 +17°C° 0 mm 0 mps 652 mmHg 87%
    21:00 +18°C° 0 mm 1 mps 652 mmHg 91%
    22:00 +18°C° 0 mm 1 mps 652 mmHg 91%
    23:00 +18°C° 0 mm 1 mps 652 mmHg 90%

    25 Febrero, Martes

    Tiempo Temperatura Precipitaciones Viento Presión Humedad
    00:00 +18°C° 0 mm 1 mps 652 mmHg 90%
    01:00 +16°C° 0 mm 1 mps 652 mmHg 91%
    02:00 +16°C° 0 mm 1 mps 652 mmHg 92%
    03:00 +16°C° 0 mm 1 mps 651 mmHg 93%
    04:00 +16°C° 0 mm 1 mps 651 mmHg 94%
    05:00 +16°C° 0 mm 1 mps 651 mmHg 94%
    06:00 +15°C° 0 mm 1 mps 651 mmHg 94%
    07:00 +17°C° 0 mm 0 mps 653 mmHg 83%
    08:00 +20°C° 0 mm 0 mps 654 mmHg 72%
    09:00 +22°C° 0 mm 0 mps 655 mmHg 61%
    10:00 +26°C° 0 mm 1 mps 655 mmHg 54%
    11:00 +28°C° 0 mm 1 mps 655 mmHg 47%
    12:00 +30°C° 0 mm 1 mps 655 mmHg 40%
    13:00 +29°C° 0.1 mm 1 mps 654 mmHg 45%
    14:00 +28°C° 0.1 mm 1 mps 654 mmHg 50%
    15:00 +28°C° 0.1 mm 1 mps 653 mmHg 55%
    16:00 +26°C° 0.4 mm 1 mps 653 mmHg 66%
    17:00 +23°C° 0.4 mm 1 mps 652 mmHg 77%
    18:00 +21°C° 0.4 mm 1 mps 652 mmHg 87%
    19:00 +19°C° 0.2 mm 0 mps 652 mmHg 89%
    20:00 +18°C° 0.2 mm 0 mps 653 mmHg 91%
    21:00 +17°C° 0.2 mm 0 mps 653 mmHg 93%
    22:00 +17°C° 0.1 mm 0 mps 653 mmHg 93%
    23:00 +17°C° 0.1 mm 0 mps 654 mmHg 94%
    Mostrar más